Peotone Weather
Station Historical Data
 
Daily Summary for September 23, 2017 Units:  English    Metric   Both
« Previous Day
Next Day »
Daily Weekly Monthly Yearly Custom
  Current: High: Low: Average:
Temperature: 93.1 °F 93.3 °F 67.1 °F 76 °F
Dew Point: 69.3 °F 73.4 °F 65.1 °F 68.2 °F
Humidity: 46% 94% 45% 80%
Wind Speed: 3.4mph 8.1mph 0.0mph 0.8mph
Wind Gust: 3.4mph 9.2mph - -
WindESE - - SE
Pressure: 30.02 in 30.08 in 29.99 in -
Precipitation: 0.00 in      
Historical Graphs
 
 
Tabular Data for September 23, 2017
Time Temperature Dew Point Pressure Wind Wind Speed Wind Gust Humidity Rainfall Rate (Hourly) solar Conditions
00:00 72.6 °F 68.2 °F 30.00 in Calm     86% 0.00 in 0.00 W/m2
00:03 72.5 °F 68.1 °F 30.00 in Calm     86% 0.00 in 0.00 W/m2
00:05 72.4 °F 68.0 °F 30.00 in Calm     86% 0.00 in 0.00 W/m2
00:08 72.3 °F 67.9 °F 30.00 in Calm     86% 0.00 in 0.00 W/m2
00:10 72.3 °F 68.2 °F 30.01 in Calm     87% 0.00 in 0.00 W/m2
00:13 72.3 °F 68.2 °F 30.01 in Calm     87% 0.00 in 0.00 W/m2
00:15 72.2 °F 68.1 °F 30.00 in Calm     87% 0.00 in 0.00 W/m2
00:18 72.0 °F 67.9 °F 30.00 in Calm     87% 0.00 in 0.00 W/m2
00:20 72.0 °F 67.9 °F 30.00 in Calm     87% 0.00 in 0.00 W/m2
00:23 72.1 °F 68.0 °F 30.00 in Calm     87% 0.00 in 0.00 W/m2
00:25 72.1 °F 68.0 °F 30.00 in Calm     87% 0.00 in 0.00 W/m2
00:28 72.0 °F 67.9 °F 30.00 in Calm     87% 0.00 in 0.00 W/m2
00:30 71.9 °F 67.8 °F 30.00 in Calm     87% 0.00 in 0.00 W/m2
00:33 71.8 °F 67.7 °F 30.00 in Calm     87% 0.00 in 0.00 W/m2
00:35 71.7 °F 68.0 °F 30.00 in Calm     88% 0.00 in 0.00 W/m2
00:38 71.6 °F 67.9 °F 30.00 in Calm     88% 0.00 in 0.00 W/m2
00:40 71.7 °F 68.0 °F 30.01 in Calm     88% 0.00 in 0.00 W/m2
00:43 71.8 °F 68.1 °F 30.01 in Calm     88% 0.00 in 0.00 W/m2
00:45 71.6 °F 67.9 °F 30.01 in Calm     88% 0.00 in 0.00 W/m2
00:48 71.6 °F 67.9 °F 30.01 in Calm     88% 0.00 in 0.00 W/m2
00:50 71.7 °F 68.0 °F 30.01 in Calm     88% 0.00 in 0.00 W/m2
00:53 71.8 °F 68.1 °F 30.01 in Calm     88% 0.00 in 0.00 W/m2
00:55 71.8 °F 68.1 °F 30.01 in Calm     88% 0.00 in 0.00 W/m2
01:00 71.5 °F 67.8 °F 30.01 in Calm     88% 0.00 in 0.00 W/m2
01:05 71.1 °F 67.4 °F 30.01 in Calm     88% 0.00 in 0.00 W/m2
01:10 71.0 °F 67.3 °F 30.01 in Calm     88% 0.00 in 0.00 W/m2
01:15 70.9 °F 67.5 °F 30.01 in Calm     89% 0.00 in 0.00 W/m2
01:20 71.0 °F 67.6 °F 30.01 in Calm     89% 0.00 in 0.00 W/m2
01:25 70.8 °F 67.4 °F 30.01 in Calm     89% 0.00 in 0.00 W/m2
01:30 70.6 °F 67.2 °F 30.01 in Calm     89% 0.00 in 0.00 W/m2
01:35 70.6 °F 67.5 °F 30.01 in Calm     90% 0.00 in 0.00 W/m2
01:40 70.6 °F 67.2 °F 30.01 in Calm     89% 0.00 in 0.00 W/m2
01:41 70.6 °F 67.2 °F 30.01 in Calm     89% 0.00 in 0.00 W/m2
01:45 70.6 °F 67.2 °F 30.01 in Calm     89% 0.00 in 0.00 W/m2
01:46 70.6 °F 67.2 °F 30.01 in Calm     89% 0.00 in 0.00 W/m2
01:50 70.4 °F 67.0 °F 30.01 in Calm     89% 0.00 in 0.00 W/m2
01:51 70.4 °F 67.0 °F 30.01 in Calm     89% 0.00 in 0.00 W/m2
01:55 70.0 °F 66.9 °F 30.01 in Calm     90% 0.00 in 0.00 W/m2
01:56 70.0 °F 66.9 °F 30.01 in Calm     90% 0.00 in 0.00 W/m2
02:00 69.8 °F 67.1 °F 30.01 in Calm     91% 0.00 in 0.00 W/m2
02:01 69.8 °F 67.1 °F 30.01 in Calm     91% 0.00 in 0.00 W/m2
02:05 69.8 °F 67.1 °F 30.00 in Calm     91% 0.00 in 0.00 W/m2
02:06 69.8 °F 67.1 °F 30.00 in Calm     91% 0.00 in 0.00 W/m2
02:10 69.8 °F 67.1 °F 30.00 in Calm     91% 0.00 in 0.00 W/m2
02:11 69.8 °F 67.1 °F 30.00 in Calm     91% 0.00 in 0.00 W/m2
02:15 69.9 °F 67.2 °F 30.00 in Calm     91% 0.00 in 0.00 W/m2
02:16 69.9 °F 67.2 °F 30.00 in Calm     91% 0.00 in 0.00 W/m2
02:20 69.9 °F 67.2 °F 30.00 in Calm     91% 0.00 in 0.00 W/m2
02:21 69.9 °F 67.2 °F 30.00 in Calm     91% 0.00 in 0.00 W/m2
02:25 69.9 °F 66.8 °F 30.00 in Calm     90% 0.00 in 0.00 W/m2
02:26 69.9 °F 66.8 °F 30.00 in Calm     90% 0.00 in 0.00 W/m2
02:30 69.7 °F 67.0 °F 30.00 in Calm     91% 0.00 in 0.00 W/m2
02:31 69.7 °F 67.0 °F 30.00 in Calm     91% 0.00 in 0.00 W/m2
02:35 69.3 °F 66.6 °F 30.00 in Calm     91% 0.00 in 0.00 W/m2
02:36 69.3 °F 66.6 °F 30.00 in Calm     91% 0.00 in 0.00 W/m2
02:40 69.3 °F 66.9 °F 30.00 in Calm     92% 0.00 in 0.00 W/m2
02:41 69.3 °F 66.9 °F 30.00 in Calm     92% 0.00 in 0.00 W/m2
02:45 69.4 °F 67.0 °F 30.00 in Calm     92% 0.00 in 0.00 W/m2
02:46 69.4 °F 67.0 °F 30.00 in Calm     92% 0.00 in 0.00 W/m2
02:50 69.1 °F 66.7 °F 30.00 in Calm     92% 0.00 in 0.00 W/m2
02:51 69.1 °F 66.7 °F 30.00 in Calm     92% 0.00 in 0.00 W/m2
02:55 68.9 °F 66.5 °F 29.99 in Calm     92% 0.00 in 0.00 W/m2
02:56 68.9 °F 66.5 °F 29.99 in Calm     92% 0.00 in 0.00 W/m2
03:01 68.9 °F 66.5 °F 29.99 in Calm     92% 0.00 in 0.00 W/m2
03:06 69.0 °F 66.6 °F 29.99 in Calm     92% 0.00 in 0.00 W/m2
03:11 68.9 °F 66.5 °F 29.99 in Calm     92% 0.00 in 0.00 W/m2
03:16 69.1 °F 66.7 °F 30.00 in Calm     92% 0.00 in 0.00 W/m2
03:21 68.9 °F 66.5 °F 30.00 in Calm     92% 0.00 in 0.00 W/m2
03:26 68.8 °F 66.4 °F 30.00 in Calm     92% 0.00 in 0.00 W/m2
03:32 68.7 °F 66.3 °F 30.00 in Calm     92% 0.00 in 0.00 W/m2
03:37 68.5 °F 66.1 °F 30.00 in Calm     92% 0.00 in 0.00 W/m2
03:42 68.6 °F 66.5 °F 30.00 in Calm     93% 0.00 in 0.00 W/m2
03:47 68.6 °F 66.5 °F 30.00 in Calm     93% 0.00 in 0.00 W/m2
03:52 68.6 °F 66.5 °F 30.00 in Calm     93% 0.00 in 0.00 W/m2
03:57 68.4 °F 66.3 °F 30.00 in Calm     93% 0.00 in 0.00 W/m2
04:02 68.3 °F 66.2 °F 30.01 in Calm     93% 0.00 in 0.00 W/m2
04:07 68.1 °F 66.0 °F 30.00 in Calm     93% 0.00 in 0.00 W/m2
04:12 68.0 °F 65.9 °F 30.00 in Calm     93% 0.00 in 0.00 W/m2
04:17 68.0 °F 65.9 °F 30.01 in Calm     93% 0.00 in 0.00 W/m2
04:22 68.1 °F 66.0 °F 30.01 in Calm     93% 0.00 in 0.00 W/m2
04:27 68.0 °F 65.9 °F 30.01 in Calm     93% 0.00 in 0.00 W/m2
04:32 67.7 °F 65.6 °F 30.01 in Calm     93% 0.00 in 0.00 W/m2
04:37 67.6 °F 65.5 °F 30.01 in Calm     93% 0.00 in 0.00 W/m2
04:42 67.6 °F 65.5 °F 30.01 in Calm     93% 0.00 in 0.00 W/m2
04:47 67.5 °F 65.4 °F 30.01 in Calm     93% 0.00 in 0.00 W/m2
04:52 67.4 °F 65.6 °F 30.01 in Calm     94% 0.00 in 0.00 W/m2
04:57 67.6 °F 65.8 °F 30.01 in Calm     94% 0.00 in 0.00 W/m2
05:02 67.5 °F 65.7 °F 30.01 in Calm   1.1 mph 94% 0.00 in 0.00 W/m2
05:07 67.4 °F 65.6 °F 30.01 in Calm     94% 0.00 in 0.00 W/m2
05:12 67.4 °F 65.6 °F 30.01 in Calm     94% 0.00 in 0.00 W/m2
05:17 67.3 °F 65.5 °F 30.02 in Calm     94% 0.00 in 0.00 W/m2
05:22 67.3 °F 65.5 °F 30.02 in Calm   1.1 mph 94% 0.00 in 0.00 W/m2
05:27 67.3 °F 65.5 °F 30.02 in Calm     94% 0.00 in 0.00 W/m2
05:32 67.3 °F 65.5 °F 30.02 in Calm     94% 0.00 in 0.00 W/m2
05:36 67.3 °F 65.5 °F 30.03 in Calm     94% 0.00 in 0.00 W/m2
05:41 67.5 °F 65.7 °F 30.03 in Calm     94% 0.00 in 0.00 W/m2
05:47 67.7 °F 65.9 °F 30.02 in Calm     94% 0.00 in 0.00 W/m2
05:52 67.7 °F 65.6 °F 30.03 in East 1.1 mph 2.3 mph 93% 0.00 in 0.00 W/m2
05:57 67.8 °F 65.7 °F 30.03 in East 1.1 mph 1.1 mph 93% 0.00 in 0.00 W/m2
06:02 67.6 °F 65.5 °F 30.03 in Calm     93% 0.00 in 0.00 W/m2
06:07 67.4 °F 65.3 °F 30.03 in Calm   1.1 mph 93% 0.00 in 0.00 W/m2
06:12 67.2 °F 65.1 °F 30.03 in Calm     93% 0.00 in 0.00 W/m2
06:17 67.2 °F 65.1 °F 30.04 in Calm     93% 0.00 in 0.00 W/m2
06:22 67.2 °F 65.4 °F 30.04 in Calm     94% 0.00 in 0.00 W/m2
06:27 67.1 °F 65.3 °F 30.04 in Calm     94% 0.00 in 0.00 W/m2
06:32 67.1 °F 65.3 °F 30.04 in Calm     94% 0.00 in 0.00 W/m2
06:37 67.2 °F 65.4 °F 30.04 in Calm   1.1 mph 94% 0.00 in 0.00 W/m2
06:40 67.1 °F 65.3 °F 30.04 in Calm   2.3 mph 94% 0.00 in 0.00 W/m2
06:45 67.3 °F 65.5 °F 30.05 in East 1.1 mph 3.4 mph 94% 0.00 in 5.00 W/m2
06:50 67.4 °F 65.6 °F 30.05 in East 3.4 mph 3.4 mph 94% 0.00 in 9.00 W/m2
06:55 67.6 °F 65.8 °F 30.05 in Calm   3.4 mph 94% 0.00 in 12.00 W/m2
07:00 67.6 °F 65.5 °F 30.05 in Calm   1.1 mph 93% 0.00 in 16.00 W/m2
07:05 67.7 °F 65.6 °F 30.05 in East 1.1 mph 1.1 mph 93% 0.00 in 19.00 W/m2
07:11 67.6 °F 65.5 °F 30.05 in Calm   2.3 mph 93% 0.00 in 23.00 W/m2
07:16 67.8 °F 65.7 °F 30.05 in Calm   2.3 mph 93% 0.00 in 26.00 W/m2
07:21 68.2 °F 66.1 °F 30.05 in Calm     93% 0.00 in 28.00 W/m2
07:26 68.6 °F 66.5 °F 30.05 in East 1.1 mph 1.1 mph 93% 0.00 in 32.00 W/m2
07:31 69.0 °F 66.6 °F 30.06 in Calm   3.4 mph 92% 0.00 in 33.00 W/m2
07:36 69.5 °F 67.1 °F 30.06 in Calm   1.1 mph 92% 0.00 in 37.00 W/m2
07:41 70.0 °F 67.3 °F 30.06 in East 1.1 mph 2.3 mph 91% 0.00 in 39.00 W/m2
07:46 70.4 °F 67.3 °F 30.06 in East 1.1 mph 3.4 mph 90% 0.00 in 40.00 W/m2
07:51 70.7 °F 67.3 °F 30.06 in Calm   3.4 mph 89% 0.00 in 42.00 W/m2
07:56 71.2 °F 67.8 °F 30.06 in Calm     89% 0.00 in 46.00 W/m2
08:01 71.3 °F 67.9 °F 30.06 in East 2.3 mph 3.4 mph 89% 0.00 in 47.00 W/m2
08:06 71.4 °F 68.0 °F 30.07 in East 1.1 mph 2.3 mph 89% 0.00 in 51.00 W/m2
08:11 71.8 °F 68.1 °F 30.06 in Calm   3.4 mph 88% 0.00 in 84.00 W/m2
08:16 72.2 °F 68.4 °F 30.06 in Calm     88% 0.00 in 62.00 W/m2
08:21 72.6 °F 68.8 °F 30.07 in Calm     88% 0.00 in 188.00 W/m2
08:26 73.0 °F 68.9 °F 30.07 in Calm   2.3 mph 87% 0.00 in 237.00 W/m2
08:31 73.4 °F 69.3 °F 30.07 in Calm   2.3 mph 87% 0.00 in 156.00 W/m2
08:36 73.9 °F 69.4 °F 30.07 in East 1.1 mph 1.1 mph 86% 0.00 in 272.00 W/m2
08:41 74.4 °F 69.6 °F 30.07 in East 2.3 mph 2.3 mph 85% 0.00 in 288.00 W/m2
08:46 75.0 °F 70.2 °F 30.07 in ESE 2.3 mph 2.3 mph 85% 0.00 in 211.00 W/m2
08:51 75.6 °F 70.4 °F 30.07 in Calm   1.1 mph 84% 0.00 in 322.00 W/m2
08:56 76.4 °F 70.5 °F 30.08 in SE 1.1 mph 1.1 mph 82% 0.00 in 334.00 W/m2
09:02 76.7 °F 70.4 °F 30.08 in Calm   1.1 mph 81% 0.00 in 350.00 W/m2
09:07 77.4 °F 70.8 °F 30.07 in SE 2.3 mph 3.4 mph 80% 0.00 in 364.00 W/m2
09:12 77.7 °F 70.7 °F 30.07 in SE 1.1 mph 3.4 mph 79% 0.00 in 378.00 W/m2
09:17 78.1 °F 71.1 °F 30.07 in SE 1.1 mph 2.3 mph 79% 0.00 in 394.00 W/m2
09:22 78.6 °F 71.6 °F 30.07 in Calm   2.3 mph 79% 0.00 in 408.00 W/m2
09:27 79.0 °F 70.8 °F 30.07 in Calm     76% 0.00 in 420.00 W/m2
09:32 79.6 °F 71.0 °F 30.07 in SE 3.4 mph 3.4 mph 75% 0.00 in 434.00 W/m2
09:37 80.1 °F 71.9 °F 30.07 in SE 3.4 mph 4.6 mph 76% 0.00 in 448.00 W/m2
09:42 80.1 °F 71.1 °F 30.08 in Calm   2.3 mph 74% 0.00 in 462.00 W/m2
09:47 80.9 °F 71.8 °F 30.08 in SE 2.3 mph 2.3 mph 74% 0.00 in 476.00 W/m2
09:52 81.5 °F 71.6 °F 30.07 in Calm     72% 0.00 in 487.00 W/m2
09:57 81.8 °F 71.5 °F 30.07 in Calm     71% 0.00 in 499.00 W/m2
10:02 82.2 °F 71.9 °F 30.07 in Calm   2.3 mph 71% 0.00 in 512.00 W/m2
10:07 82.5 °F 71.7 °F 30.07 in East 1.1 mph 2.3 mph 70% 0.00 in 520.00 W/m2
10:12 82.9 °F 71.3 °F 30.08 in Calm   1.1 mph 68% 0.00 in 533.00 W/m2
10:17 83.8 °F 72.1 °F 30.08 in Calm   3.4 mph 68% 0.00 in 543.00 W/m2
10:23 84.0 °F 71.4 °F 30.07 in Calm   1.1 mph 66% 0.00 in 555.00 W/m2
10:28 83.9 °F 71.8 °F 30.07 in Calm   2.3 mph 67% 0.00 in 566.00 W/m2
10:33 84.3 °F 72.2 °F 30.07 in East 3.4 mph 5.8 mph 67% 0.00 in 575.00 W/m2
10:38 84.5 °F 71.4 °F 30.07 in Calm     65% 0.00 in 118.00 W/m2
10:43 85.1 °F 71.1 °F 30.07 in Calm   2.3 mph 63% 0.00 in 584.00 W/m2
10:44 85.3 °F 71.3 °F 30.07 in East 1.1 mph 2.3 mph 63% 0.00 in 536.00 W/m2
10:49 85.4 °F 71.8 °F 30.07 in ESE 2.3 mph 5.8 mph 64% 0.00 in 125.00 W/m2
10:54 85.6 °F 72.5 °F 30.07 in ESE 1.1 mph 4.6 mph 65% 0.00 in 612.00 W/m2
10:59 85.9 °F 71.8 °F 30.07 in ENE 2.3 mph 4.6 mph 63% 0.00 in 130.00 W/m2
11:04 86.0 °F 71.5 °F 30.07 in Calm   5.8 mph 62% 0.00 in 149.00 W/m2
11:09 86.4 °F 71.4 °F 30.07 in SSE 3.4 mph 6.9 mph 61% 0.00 in 118.00 W/m2
11:14 86.7 °F 71.7 °F 30.07 in SSE 3.4 mph 5.8 mph 61% 0.00 in 93.00 W/m2
11:19 87.2 °F 72.1 °F 30.07 in SSE 2.3 mph 5.8 mph 61% 0.00 in 98.00 W/m2
11:24 87.1 °F 70.0 °F 30.07 in Calm     57% 0.00 in 163.00 W/m2
11:29 87.6 °F 72.0 °F 30.07 in SSE 4.6 mph 4.6 mph 60% 0.00 in 668.00 W/m2
11:34 87.8 °F 70.7 °F 30.07 in Calm   4.6 mph 57% 0.00 in 673.00 W/m2
11:39 88.6 °F 73.4 °F 30.07 in SSE 3.4 mph 6.9 mph 61% 0.00 in 671.00 W/m2
11:44 88.4 °F 71.8 °F 30.07 in Calm   3.4 mph 58% 0.00 in 274.00 W/m2
11:49 88.7 °F 71.0 °F 30.07 in SSE 5.8 mph 8.1 mph 56% 0.00 in 689.00 W/m2
11:54 89.1 °F 70.3 °F 30.07 in WSW 3.4 mph 8.1 mph 54% 0.00 in 689.00 W/m2
11:59 89.2 °F 72.5 °F 30.06 in WSW 1.1 mph 2.3 mph 58% 0.00 in 701.00 W/m2
12:04 89.8 °F 70.4 °F 30.06 in SSW 1.1 mph 6.9 mph 53% 0.00 in 705.00 W/m2
12:09 90.2 °F 71.3 °F 30.07 in ESE 4.6 mph 5.8 mph 54% 0.00 in 717.00 W/m2
12:14 90.1 °F 70.1 °F 30.06 in SE 1.1 mph 9.2 mph 52% 0.00 in 719.00 W/m2
12:19 89.9 °F 70.5 °F 30.06 in Calm   3.4 mph 53% 0.00 in 726.00 W/m2
12:24 90.9 °F 70.3 °F 30.06 in SSE 3.4 mph 9.2 mph 51% 0.00 in 728.00 W/m2
12:29 91.7 °F 70.4 °F 30.06 in SSE 5.8 mph 9.2 mph 50% 0.00 in 733.00 W/m2
12:34 90.9 °F 68.5 °F 30.06 in SE 4.6 mph 5.8 mph 48% 0.00 in 765.00 W/m2
12:40 91.1 °F 70.5 °F 30.05 in SSE 2.3 mph 5.8 mph 51% 0.00 in 729.00 W/m2
12:45 91.2 °F 70.6 °F 30.05 in Calm   5.8 mph 51% 0.00 in 759.00 W/m2
12:50 91.6 °F 70.3 °F 30.05 in Calm   8.1 mph 50% 0.00 in 613.00 W/m2
12:55 91.2 °F 70.6 °F 30.05 in Calm   8.1 mph 51% 0.00 in 744.00 W/m2
13:00 91.8 °F 71.1 °F 30.05 in NE 4.6 mph 8.1 mph 51% 0.00 in 738.00 W/m2
13:05 91.8 °F 69.3 °F 30.05 in SSE 1.1 mph 6.9 mph 48% 0.00 in 722.00 W/m2
13:10 91.5 °F 69.7 °F 30.05 in WNW 1.1 mph 5.8 mph 49% 0.00 in 733.00 W/m2
13:11 91.6 °F 69.8 °F 30.05 in South 6.9 mph 6.9 mph 49% 0.00 in 740.00 W/m2
13:16 91.4 °F 69.0 °F 30.04 in Calm   9.2 mph 48% 0.00 in 737.00 W/m2
13:21 91.7 °F 69.2 °F 30.04 in ESE 1.1 mph 4.6 mph 48% 0.00 in 721.00 W/m2
13:26 92.4 °F 69.9 °F 30.04 in SSE 2.3 mph 9.2 mph 48% 0.00 in 722.00 W/m2
13:31 92.3 °F 69.8 °F 30.04 in SE 3.4 mph 4.6 mph 48% 0.00 in 721.00 W/m2
13:36 91.6 °F 67.3 °F 30.04 in SSE 8.1 mph 8.1 mph 45% 0.00 in 721.00 W/m2
13:41 92.2 °F 68.4 °F 30.03 in SW 2.3 mph 4.6 mph 46% 0.00 in 717.00 W/m2
13:46 92.5 °F 69.3 °F 30.04 in SSE 1.1 mph 1.1 mph 47% 0.00 in 705.00 W/m2
13:51 92.7 °F 69.5 °F 30.03 in ESE 2.3 mph 3.4 mph 47% 0.00 in 701.00 W/m2
13:56 92.6 °F 71.3 °F 30.03 in South 1.1 mph 2.3 mph 50% 0.00 in 675.00 W/m2
14:01 93.0 °F 69.8 °F 30.03 in SSE 3.4 mph 4.6 mph 47% 0.00 in 649.00 W/m2
14:06 93.0 °F 69.2 °F 30.03 in ENE 1.1 mph 2.3 mph 46% 0.00 in 671.00 W/m2
14:12 93.2 °F 71.8 °F 30.03 in Calm   1.1 mph 50% 0.00 in 661.00 W/m2
14:17 93.2 °F 70.0 °F 30.03 in ESE 1.1 mph 4.6 mph 47% 0.00 in 663.00 W/m2
14:22 93.3 °F 69.4 °F 30.02 in SE 8.1 mph 8.1 mph 46% 0.00 in 661.00 W/m2
14:27 93.0 °F 71.0 °F 30.02 in ESE 3.4 mph 3.4 mph 49% 0.00 in 652.00 W/m2
14:32 92.8 °F 69.0 °F 30.02 in ESE 3.4 mph 8.1 mph 46% 0.00 in 640.00 W/m2
14:37 93.0 °F 69.2 °F 30.02 in ESE 2.3 mph 8.1 mph 46% 0.00 in 628.00 W/m2
14:42 92.7 °F 69.5 °F 30.02 in ESE 4.6 mph 4.6 mph 47% 0.00 in 612.00 W/m2
14:47 93.1 °F 69.3 °F 30.02 in ESE 3.4 mph 3.4 mph 46% 0.00 in 603.00 W/m2
peotoneweather.com
Compliments of Weather Underground - 1.25 mb